Location: Unspecified
(0.0000°N, 0.0000°E)
Time: 13:52:20
(UTC+00:00)

JUGNU - Pass Details

Date: 20 February 2020
Orbit: 836 x 864 km, 20.0° (Epoch: 01 April)

Event Time Altitude Azimuth Distance (km) Brightness Sun altitude
Rises 05:25:37 0° 227° (SW) 3,417 ? -11.8°
Reaches altitude 10° 05:28:55 10° 210° (SSW) 2,485 ? -11.0°
Maximum altitude 05:33:07 19° 165° (SSE) 1,904 ? -10.0°
Drops below altitude 10° 05:37:19 10° 120° (ESE) 2,490 ? -9.0°
Sets 05:40:37 0° 103° (ESE) 3,427 ? -8.1°
